User: anonymous   Login
Location: Unspecified
(31.9243°N, 0.0000°E)
Time: 02:55:04
(UTC+00:00)
Language:

Cosmos 2360 Rocket - Orbit

View from above orbital plane
View from above orbital plane
View from above satellite
View from above satellite

Ground track
Ground track

The orbit is defined by the following mean orbital elements,

1 25407U          26088.20912243 +.00000000 +00000-0 -94285-4 0 00001
2 25407  71.0100 140.5278 0007995 338.0712  22.0068 14.16193902    04
Epoch (UTC): 29 March 2026 05:01:08
Eccentricity: 0.0007995
inclination: 71.0100°
perigee height: 832 km
apogee height: 844 km
right ascension of ascending node: 140.5278°
argument of perigee: 338.0712°
revolutions per day: 14.16193902
mean anomaly at epoch: 22.0068°

The dashed part of the orbit path shows where the satellite is in the earth's shadow,  

DLR